Weather History for Kendall, FL

Change the Weather History Date:

Wednesday, November 14, 2012

  Actual Average Record
Temperature  
Mean Temperature 72 °F -  
Max Temperature 80 °F 82 °F 87 °F (1992)
Min Temperature 64 °F 66 °F 56 °F (1991)
Cooling Degree Days 7    
Growing Degree Days 22 (Base 50)    
Moisture  
Dew Point 66 °F    
Average Humidity 83    
Maximum Humidity 97    
Minimum Humidity 64    
Precipitation  
Precipitation 0.03 in - - ()
Sea Level Pressure  
Sea Level Pressure 30.08 in    
Wind  
Wind Speed 6 mph (NE)    
Max Wind Speed 15 mph    
Max Gust Speed 24 mph    
Visibility 10 miles    
Events Rain    
Averages and records for this station are not official NWS values.
T = Trace of Precipitation, MM = Missing Value Source: NWS Daily Summary

Daily Weather History Graph

Daily Weather History Graph

Search for Another Location

Airport:

Trip Planner

Search our weather history database for the weather conditions in past years. The results will help you decide how hot, cold, wet, or windy it might be!

Date:

Astronomy

Nov. 14, 2012 Rise Set
Actual Time 6:39 AM EST 5:33 PM EST
Civil Twilight 6:14 AM EST 5:57 PM EST
Nautical Twilight 5:47 AM EST 6:25 PM EST
Astronomical Twilight 5:19 AM EST 6:52 PM EST
Moon 7:21 AM EST (11/14) 6:26 PM EST (11/14)
Length of Visible Light 11h 42m
Length of Day
10h 54m
New Moon, 1% of the Moon is Illuminated
Nov 14
New Moon
Nov 20
First Quarter
Nov 28
Full
Dec 6
Last Quarter
Dec 13
New

Hourly Weather History & Observations

Time (EST) Temp. Heat Index Dew Point Humidity Pressure Visibility Wind Dir Wind Speed Gust Speed Precip Events Conditions
12:53 AM 66.9 °F - 64.0 °F 90% 30.07 in 10.0 mi North 6.9 mph - N/A   Clear
1:53 AM 69.1 °F - 66.0 °F 90% 30.06 in 10.0 mi NNW 6.9 mph - 0.00 in   Overcast
2:38 AM 69.8 °F - 66.2 °F 88% 30.06 in 10.0 mi ESE 3.5 mph - N/A   Mostly Cloudy
2:53 AM 69.1 °F - 66.0 °F 90% 30.06 in 10.0 mi Calm Calm - N/A   Mostly Cloudy
3:00 AM 69.8 °F - 64.4 °F 83% 30.06 in 10.0 mi Calm Calm - N/A   Mostly Cloudy
3:53 AM 69.1 °F - 66.0 °F 90% 30.06 in 10.0 mi Calm Calm - 0.00 in   Overcast
4:53 AM 64.9 °F - 64.0 °F 97% 30.06 in 10.0 mi WNW 5.8 mph - N/A   Clear
5:53 AM 64.9 °F - 64.0 °F 97% 30.06 in 10.0 mi NW 3.5 mph - N/A   Clear
6:53 AM 66.9 °F - 66.0 °F 97% 30.08 in 10.0 mi North 4.6 mph - N/A   Partly Cloudy
7:53 AM 70.0 °F - 66.9 °F 90% 30.10 in 10.0 mi NNW 5.8 mph - N/A   Clear
8:53 AM 73.9 °F - 66.9 °F 79% 30.12 in 10.0 mi NNE 4.6 mph - N/A   Partly Cloudy
9:53 AM 75.9 °F - 68.0 °F 76% 30.12 in 10.0 mi NE 6.9 mph - 0.00 in   Partly Cloudy
10:53 AM 75.0 °F - 69.1 °F 82% 30.10 in 9.0 mi ENE 11.5 mph 16.1 mph 0.03 in Rain Light Rain
11:53 AM 80.1 °F 82.7 °F 68.0 °F 67% 30.09 in 10.0 mi East 13.8 mph - 0.00 in   Mostly Cloudy
12:53 PM 79.0 °F - 66.9 °F 66% 30.07 in 10.0 mi East 12.7 mph 24.2 mph N/A   Mostly Cloudy
1:53 PM 79.0 °F - 66.0 °F 64% 30.06 in 10.0 mi ENE 15.0 mph - 0.00 in   Clear
2:53 PM 79.0 °F - 66.0 °F 64% 30.05 in 10.0 mi ESE 12.7 mph - N/A   Partly Cloudy
3:53 PM 75.9 °F - 66.0 °F 71% 30.06 in 10.0 mi ESE 9.2 mph - N/A   Overcast
4:53 PM 75.9 °F - 66.9 °F 74% 30.06 in 10.0 mi East 5.8 mph - N/A   Partly Cloudy
5:53 PM 73.9 °F - 64.9 °F 73% 30.06 in 10.0 mi East 8.1 mph - N/A   Partly Cloudy
6:53 PM 71.1 °F - 64.9 °F 81% 30.08 in 10.0 mi East 5.8 mph - N/A   Clear
7:53 PM 72.0 °F - 64.0 °F 76% 30.08 in 10.0 mi NE 4.6 mph - N/A   Clear
8:53 PM 66.9 °F - 63.0 °F 87% 30.09 in 10.0 mi Calm Calm - N/A   Clear
9:53 PM 64.9 °F - 63.0 °F 93% 30.10 in 10.0 mi Calm Calm - N/A   Clear
10:53 PM 66.0 °F - 64.9 °F 96% 30.10 in 10.0 mi NW 3.5 mph - N/A   Clear
11:53 PM 64.9 °F - 63.0 °F 93% 30.09 in 10.0 mi Calm Calm - N/A   Clear